Regional Weather Roundup
Issued by NWS Jackson, KY

Home | Current Version | Previous Version | Graphics & Text | Print | Product List | Glossary On
Versions: 1 2 3 4 5 6 7 8 9 10 11 12 13 14 15 16 17 18 19 20 21 22 23 24 25 26 27 28 29 30 31 32 33 34 35 36 37 38 39 40 41 42 43 44 45 46 47 48 49 50
000
ASUS43 KJKL 210019
RWRJKL

EAST KENTUCKY HOURLY WEATHER ROUNDUP
NATIONAL WEATHER SERVICE JACKSON KY
700 PM EST THU NOV 20 2014

NOTE: "FAIR" INDICATES FEW OR NO CLOUDS BELOW 12,000 FEET WITH
NO SIGNIFICANT WEATHER AND/OR OBSTRUCTIONS TO VISIBILITY.

* THESE REPORTS ARE NOT UNDER NWS QUALITY CONTROL AND MAY NOT
  REPORT WEATHER SUCH AS PRECIPITATION AND FOG.

KYZ079-080-083-085-087-088-110-112-115-119-120-210100
...EASTERN KENTUCKY...

CITY           SKY/WX    TMP DP  RH WIND       PRES   REMARKS
JACKSON        CLEAR     32  17  54 VRB6      30.15R WCI  26
6HR MIN TEMP:  32; 6HR MAX TEMP:  43;

LONDON         CLEAR     35  16  45 NW5       30.18R WCI  31
6HR MIN TEMP:  35; 6HR MAX TEMP:  43;

SOMERSET*      CLEAR     34  18  51 W3        30.22R
MONTICELLO*    CLEAR     33  19  56 W5        30.23R WCI  28
6HR MIN TEMP:  32; 6HR MAX TEMP:  44;

MIDDLESBORO*   CLEAR     33  26  74 CALM      30.17R
6HR MIN TEMP:  33; 6HR MAX TEMP:  48;

HARLAN APT*    CLEAR     37  18  44 N3        30.15R
BIG SANDY*     CLEAR     33  18  52 NW6       30.15R WCI  28
6HR MIN TEMP:  33; 6HR MAX TEMP:  43;

MOREHEAD APT*  CLEAR     28  16  59 W5        30.20S WCI  23
$$

KYZ035-036-041-042-044-050-067-078-099-210100
...CENTRAL KENTUCKY...

CITY           SKY/WX    TMP DP  RH WIND       PRES   REMARKS
MT STERLING*   CLEAR     28  19  69 NW3       30.20R
FLEMING/MASON* CLEAR     26  15  65 W8        30.20R WCI  17
DANVILLE*      CLEAR     32  19  59 W7        30.22R WCI  26
RICHMOND*      CLEAR     30  18  59 W6        30.19R WCI  24
LEXINGTON      CLEAR     27  17  66 NW6       30.20R WCI  20
6HR MIN TEMP:  27; 6HR MAX TEMP:  34;

FRANKFORT      CLEAR     27  15  61 W3        30.20R
6HR MIN TEMP:  27; 6HR MAX TEMP:  33;

$$

KYZ091>093-OHZ055-061-077-WVZ005-015-034-035-042-210100
...SOUTHERN OHIO/WEST VIRGINIA...

CITY           SKY/WX    TMP DP  RH WIND       PRES   REMARKS
COVINGTON      CLEAR     27  13  55 SW5       30.18R WCI  22
COLUMBUS       PTCLDY    26  13  57 W10       30.14R WCI  16
DAYTON         CLEAR     24  14  65 W12       30.16R WCI  13
WILMINGTON     CLEAR     24  13  62 W7        30.14R WCI  16
HUNTINGTON     CLEAR     30  16  56 W6        30.16R WCI  24
CHARLESTON     CLEAR     32  15  49 W7        30.14R WCI  26
PINEVILLE*     CLEAR     34  25  69 MISG      30.13R
BECKLEY        CLEAR     33  15  47 W7        30.04R WCI  27
BLUEFIELD      CLEAR     36  13  38 W9G21     30.04R WCI  29
$$

VAZ002-007-008-TNZ017-027-036-066-071-210100
...SOUTHWEST VIRGINIA/EAST TENNESSEE...

CITY           SKY/WX    TMP DP  RH WIND       PRES   REMARKS
WISE*          CLEAR     34  14  44 W7        30.09R WCI  28
JONESVILLE*    CLEAR     37  19  48 CALM      30.16R
ABINGDON*      CLEAR     40  20  44 W6        30.09S
BRISTOL        CLEAR     38  26  62 W5        30.12R WCI  34
KNOXVILLE      CLEAR     43  23  45 SW9       30.18R
OAK RIDGE      CLEAR     45  21  38 SW3       30.19R
CROSSVILLE     CLEAR     38  23  55 W6        30.18R WCI  33
NASHVILLE      CLEAR     43  18  36 CALM      30.24R
$$

...KEY TO REMARKS...
VSB - VISIBILITY IN MILES
WCI - WIND CHILL INDEX
HX  - HEAT INDEX

$$


USA.gov is the U.S. government's official web portal to all federal, state and local government web resources and services.